Vertical_Velocity
-0 -2 9 0 3 -2 -0 -3 1 1 0 0 -2 -4 -1 6 0 -3 6 -2 1 -3 3 1 2 -1 -2 1 -0 0 -1 -1 -1 -0 -1 0 -1 -1 -2 -2 -2 -2 1 1 1 1 2 -1 1
0 -1 2 -2 1 0 -1 -0 0 1 -1 4 -4 -1 -6 7 -0 -4 -3 3 -0 -2 1 -0 1 3 0 -0 -1 -2 -1 -1 -1 0 -2 -1 -1 -2 -0 -0 2 2 1 -2 -1 -3 -2 0 1
3 5 -7 1 1 -1 -1 0 2 4 1 1 1 -4 -0 3 4 -2 -1 -3 -5 -3 -2 2 1 1 1 -0 -1 1 -0 -0 2 -4 -2 -1 -2 0 -1 -0 -0 1 -1 -2 -3 -3 -2 1 5
-15 -17 -1 4 -1 -4 -1 1 -1 3 3 -4 -0 -2 -3 2 1 -7 1 -1 -2 -1 -2 -1 -1 -1 1 -0 -0 -0 -0 -1 -1 -3 -0 -1 -0 1 -1 0 1 -1 -0 -3 -2 -2 1 3 3
6 2 1 0 -1 0 3 -2 -5 0 1 2 -4 9 3 5 1 -2 -2 -3 -3 -3 -0 0 0 -1 0 0 0 0 -2 -2 -1 -2 -2 -1 3 1 2 2 0 -0 -0 -2 0 1 2 3 2
-1 1 -0 -0 -1 2 3 -4 -3 -2 4 10 -8 -4 7 1 -2 -3 -4 -1 2 -5 -1 1 1 1 1 -1 -1 -2 -2 -1 -1 -1 -1 -0 -0 -0 3 1 0 0 -1 -2 -1 -0 0 1 3
-4 -1 -1 -0 1 4 -2 4 -4 -2 -1 5 -4 -4 5 3 -1 -3 -1 1 -1 0 1 -2 -0 -1 1 -1 -2 -1 -1 -2 -1 -0 -3 1 -1 -3 -2 -2 -1 0 1 2 0 1 2 4 -1
1 -3 1 -1 0 1 1 2 -6 -13 7 -2 -11 -3 1 -7 -0 2 2 0 -1 2 2 -1 -1 -2 -1 -2 0 0 -4 -2 -1 -1 1 -0 2 2 -2 -3 -1 -0 0 2 -1 -1 2 3 2
1 1 -0 -2 -1 5 7 -3 16 6 -9 1 3 -11 -11 -4 5 6 4 4 5 5 1 -1 -3 -1 -2 -2 0 -1 -5 0 -1 -2 1 1 -4 -1 0 -3 -1 -0 -1 1 -0 -3 6 2 -10
-1 0 -2 -2 -1 -3 -0 -9 -5 -5 8 10 3 14 6 2 1 -0 -3 -4 2 -0 -1 -2 -2 -2 -3 -3 -1 -1 -3 -1 -1 1 -3 -0 0 1 2 -0 -2 1 -1 1 2 -2 -2 5 4
-2 -4 -2 -13 5 -3 -2 8 2 -5 6 -4 -19 -4 -1 1 3 0 -2 -5 -10 -1 1 -3 -1 -1 -4 -3 -0 -1 -1 -2 0 -3 -1 1 -2 1 -2 1 -1 -1 -0 0 -3 2 -1 -2 2
5 -1 -1 -13 2 3 -1 -4 3 -7 -15 -7 -5 -8 -5 -5 -5 -0 4 -0 -3 -4 -1 0 1 -3 -2 1 -1 -0 -2 -2 -2 1 1 1 1 1 -1 4 0 -2 2 4 -6 -0 -1 -1 -6
8 -4 2 -8 5 5 2 0 -18 4 -2 3 6 6 -2 -0 -1 5 7 6 0 -3 -2 -3 -2 -3 -2 -4 0 -0 -0 1 -0 -0 4 -2 -3 -1 -1 -1 1 -1 0 -3 -4 -1 1 0 1
-2 2 -2 4 -2 4 -3 1 -8 14 1 5 -1 -0 1 -4 -6 9 5 -1 -4 4 -3 -3 -3 -0 2 -1 -2 -1 0 2 -1 -3 2 -1 2 4 1 -1 -0 -2 -2 3 -1 -0 -0 2 1
-1 1 -3 -2 -3 1 -6 -1 1 -1 4 -1 2 2 2 -8 7 -8 -9 -4 -5 -7 -1 -4 -6 -0 0 -2 -2 0 -2 -0 -6 1 -1 0 2 1 4 2 0 2 -0 1 8 0 -1 0 1
-2 -2 -1 -3 0 6 -10 -2 6 7 -7 3 3 -0 1 -1 -9 1 -1 -1 2 5 -8 -0 2 -4 -0 -1 -3 -3 -2 -5 -3 -1 -5 1 -0 -0 1 2 1 -2 -2 -1 2 0 -0 1 -2
-2 -2 0 -10 -1 -2 -5 -1 -1 5 3 1 1 4 2 4 -0 3 -4 -1 -2 -3 -2 -1 1 -5 -3 3 2 -0 2 9 5 -1 3 0 -2 1 -1 -1 -2 -1 -2 -1 -2 -0 2 1 1
-3 0 -1 -1 0 4 1 0 2 1 -1 -6 -1 1 -0 -3 -6 -1 -1 -0 1 1 -1 6 0 -5 -1 4 3 3 1 0 1 0 -1 1 -0 2 -1 1 3 -1 -1 -2 -3 -0 5 -0 2
-0 2 0 -3 -0 -4 -3 -0 -0 1 8 5 2 1 -1 -2 -15 4 -0 2 -0 7 2 1 -1 -3 -1 2 1 4 -5 -1 -1 -2 2 2 -1 -2 0 2 -1 3 0 -0 2 -1 -3 -4 -3
2 1 -8 -5 -1 0 -0 1 -0 1 -7 -12 -7 1 -3 8 4 -0 2 -1 -12 -7 3 -0 -2 -2 -3 2 -1 -1 -2 -2 -1 2 0 5 2 2 0 1 -0 2 -0 -2 -3 -1 -3 -1 1
-1 0 -2 -3 -2 1 -2 -1 1 2 4 6 8 -2 4 -10 -6 -2 5 -1 -0 -2 -7 -3 -2 -3 -2 -1 1 1 7 6 -1 -2 -2 -0 2 -3 1 -1 1 0 -2 -4 -1 0 -2 -1 -2
3 -3 2 1 1 -3 -4 -6 1 -1 -0 2 1 -0 -1 -4 9 7 1 -0 -3 -7 2 0 -4 -4 0 1 -1 -5 -8 -6 -5 -3 -1 0 -5 3 -1 1 0 -1 -1 -2 -2 2 -2 -1 -1
-16 1 0 0 1 2 -4 -0 -11 1 1 -1 -0 -1 -3 -4 -5 -6 -9 -7 -6 5 -6 -2 -0 2 -1 -0 -2 -3 -3 -2 1 2 4 0 3 2 1 2 -1 -1 -0 1 -2 -1 -2 -3 -4
-4 3 1 1 1 4 -9 4 -6 -2 -11 -1 1 1 -3 -1 -4 -0 -0 12 3 4 4 4 2 -3 -1 -2 -2 -2 -3 -2 0 0 -1 -2 -1 0 0 0 -1 1 1 -1 -2 -1 -1 2 3
6 3 -1 0 6 -9 -2 6 -17 -3 -3 -9 -7 -3 -4 -3 -1 -3 -2 -8 3 -6 0 1 3 -1 -2 -1 -3 -2 -2 -0 0 -0 -1 -3 -2 -2 -2 -0 -2 -3 -1 -3 -2 -3 3 1 1
-3 -5 -6 -6 -2 -4 -1 -4 -28 -7 -3 -6 -1 -2 4 2 -0 -5 -5 -4 -5 2 -3 0 -2 3 -1 -1 -2 -2 -0 0 0 -1 -1 -1 -0 -3 2 0 -1 2 -1 -0 -1 1 2 -0 -3
-15 1 -18 -1 -1 0 -5 -4 -3 1 1 2 -0 4 -4 -3 -6 -7 -3 -6 2 -2 -7 -6 -4 1 1 -2 1 -2 -1 -3 -4 -3 1 -1 -3 1 2 1 1 -1 2 2 1 1 1 -3 -1
-8 -9 -7 -2 3 0 -3 -1 -10 1 -3 -0 3 -2 -0 0 0 7 -0 -2 -2 1 5 5 2 -9 -8 -0 -1 -3 -5 -0 -1 -1 -4 -3 -1 4 -0 -0 -1 2 1 -1 -1 0 -5 -7 -6
6 5 0 -8 -2 -3 -3 -21 -6 -4 -3 -2 -3 -5 -5 -5 -1 -2 -5 4 -9 16 -0 2 -4 2 -2 1 3 -0 -3 -0 -2 -1 -1 1 1 0 0 -1 1 0 1 -2 -3 -2 3 -1 -1
-3 -5 -4 1 -8 -3 -3 -32 -0 -2 -1 0 -2 -7 -9 1 -3 -5 -2 -1 2 -5 1 -9 2 -3 1 1 1 -2 2 -1 -6 -3 -3 2 -0 -0 1 0 -0 -1 0 1 -0 0 0 -2 -1
Height
1520 1522 1524 1524 1529 1524 1525 1514 1505 1504 1505 1506 1505 1507 1514 1516 1517 1532 1532 1534 1538 1540 1543 1546 1548 1550 1553 1556 1558 1561 1562 1564 1566 1567 1569 1570 1570 1570 1570 1570 1570 1569 1569 1569 1569 1569 1569 1569 1568
1521 1524 1524 1524 1529 1530 1522 1508 1509 1503 1505 1506 1507 1511 1513 1522 1521 1526 1532 1536 1540 1542 1545 1548 1551 1553 1555 1558 1561 1563 1564 1566 1568 1569 1571 1572 1571 1572 1572 1571 1571 1570 1571 1571 1571 1571 1570 1570 1570
1523 1525 1526 1529 1523 1526 1522 1510 1507 1508 1508 1507 1509 1513 1519 1525 1527 1530 1534 1537 1541 1544 1548 1551 1553 1555 1557 1560 1562 1565 1566 1568 1570 1571 1573 1573 1573 1574 1573 1573 1573 1573 1573 1573 1572 1572 1572 1571 1572
1526 1528 1526 1527 1520 1510 1506 1509 1510 1510 1511 1510 1509 1518 1526 1528 1528 1531 1535 1539 1543 1546 1550 1552 1555 1557 1559 1562 1564 1566 1568 1570 1572 1573 1574 1575 1575 1575 1575 1575 1575 1575 1575 1575 1574 1574 1573 1574 1574
1527 1529 1526 1527 1516 1503 1507 1504 1506 1510 1510 1513 1512 1522 1526 1533 1533 1535 1538 1541 1544 1547 1551 1553 1556 1558 1561 1563 1565 1568 1570 1572 1573 1575 1575 1576 1577 1577 1577 1577 1577 1577 1577 1577 1576 1576 1576 1576 1576
1520 1521 1528 1527 1512 1504 1507 1504 1505 1511 1514 1517 1519 1522 1532 1535 1535 1537 1540 1544 1547 1548 1551 1554 1557 1560 1562 1564 1567 1569 1571 1573 1574 1575 1576 1577 1577 1578 1578 1578 1579 1579 1579 1579 1578 1578 1578 1577 1576
1514 1517 1519 1517 1510 1512 1509 1506 1505 1510 1513 1517 1517 1526 1537 1538 1538 1539 1542 1546 1548 1550 1552 1554 1558 1560 1563 1566 1568 1570 1572 1574 1575 1576 1577 1578 1579 1579 1579 1579 1579 1580 1580 1580 1580 1580 1580 1579 1578
1511 1511 1515 1505 1508 1508 1506 1505 1505 1505 1514 1519 1518 1525 1532 1535 1538 1541 1544 1547 1549 1552 1553 1556 1558 1561 1563 1566 1569 1571 1572 1573 1575 1577 1578 1579 1580 1580 1580 1580 1580 1580 1581 1581 1582 1582 1581 1580 1580
1510 1512 1509 1501 1497 1499 1504 1504 1510 1510 1511 1518 1517 1517 1526 1533 1539 1542 1544 1548 1549 1552 1554 1556 1559 1561 1563 1566 1569 1571 1573 1574 1575 1577 1579 1580 1581 1580 1581 1581 1581 1582 1582 1583 1583 1582 1582 1582 1580
1509 1516 1502 1485 1486 1492 1492 1498 1501 1510 1517 1519 1518 1525 1529 1534 1537 1540 1542 1544 1547 1550 1553 1556 1558 1561 1563 1566 1569 1571 1572 1574 1575 1577 1579 1579 1580 1580 1580 1581 1581 1582 1583 1584 1584 1583 1583 1583 1582
1505 1505 1495 1487 1488 1489 1493 1498 1499 1506 1514 1507 1514 1521 1527 1532 1536 1538 1540 1542 1545 1549 1551 1554 1557 1560 1563 1565 1568 1570 1572 1574 1575 1577 1578 1579 1579 1580 1580 1580 1581 1582 1583 1584 1584 1584 1583 1583 1581
1501 1492 1493 1485 1484 1488 1492 1494 1497 1495 1499 1505 1507 1511 1520 1528 1532 1536 1538 1540 1544 1547 1549 1553 1556 1560 1563 1565 1568 1570 1572 1573 1574 1576 1577 1578 1578 1580 1580 1581 1582 1582 1583 1583 1584 1583 1583 1582 1581
1488 1488 1488 1486 1481 1481 1489 1490 1493 1498 1498 1508 1513 1517 1519 1525 1529 1533 1535 1539 1542 1545 1548 1551 1555 1558 1561 1565 1567 1569 1571 1572 1574 1575 1576 1576 1578 1579 1579 1581 1581 1582 1583 1583 1583 1582 1581 1581 1581
1480 1480 1480 1482 1478 1481 1484 1489 1491 1497 1499 1507 1511 1515 1519 1523 1526 1531 1536 1538 1539 1542 1545 1549 1553 1556 1559 1562 1565 1568 1570 1572 1573 1574 1575 1575 1576 1578 1579 1579 1580 1581 1581 1582 1582 1581 1580 1581 1581
1478 1480 1471 1466 1465 1473 1479 1490 1490 1492 1498 1504 1509 1513 1516 1520 1525 1528 1531 1534 1536 1539 1542 1546 1550 1554 1557 1560 1563 1566 1569 1570 1572 1572 1573 1574 1576 1577 1577 1578 1578 1579 1579 1580 1580 1580 1580 1579 1579
1478 1477 1486 1464 1466 1470 1473 1502 1489 1487 1497 1504 1508 1511 1514 1516 1521 1525 1528 1531 1534 1537 1540 1545 1549 1552 1555 1558 1561 1564 1566 1568 1569 1571 1572 1574 1575 1576 1576 1576 1576 1577 1578 1578 1578 1578 1577 1577 1577
1485 1496 1486 1472 1468 1471 1477 1495 1485 1489 1493 1500 1503 1506 1509 1514 1518 1521 1524 1528 1531 1534 1538 1542 1546 1550 1553 1556 1558 1561 1564 1566 1567 1569 1570 1572 1573 1574 1575 1575 1575 1575 1576 1576 1576 1575 1575 1576 1575
1495 1490 1482 1480 1465 1470 1475 1481 1480 1486 1490 1494 1497 1501 1505 1507 1510 1515 1519 1524 1527 1531 1534 1538 1542 1546 1550 1553 1556 1559 1562 1564 1565 1567 1569 1570 1571 1572 1573 1573 1573 1573 1574 1574 1574 1574 1574 1574 1573
1477 1482 1484 1466 1462 1472 1470 1472 1472 1478 1488 1492 1493 1497 1500 1501 1505 1511 1516 1520 1524 1528 1530 1534 1538 1542 1546 1549 1552 1555 1557 1560 1563 1565 1566 1567 1568 1570 1571 1571 1571 1571 1572 1572 1572 1573 1573 1573 1573
1474 1479 1477 1468 1462 1471 1471 1467 1467 1472 1474 1478 1485 1491 1494 1498 1502 1506 1509 1514 1518 1521 1525 1529 1533 1538 1541 1545 1549 1552 1554 1556 1560 1562 1563 1565 1566 1568 1568 1568 1568 1569 1569 1570 1570 1570 1569 1571 1571
1470 1475 1470 1478 1465 1465 1471 1480 1475 1475 1478 1479 1480 1480 1486 1488 1493 1498 1504 1507 1511 1514 1518 1522 1526 1532 1536 1541 1546 1549 1552 1554 1556 1558 1560 1562 1564 1565 1566 1566 1566 1566 1567 1567 1568 1569 1569 1570 1570
1480 1457 1461 1468 1477 1494 1467 1507 1478 1471 1474 1473 1474 1478 1479 1483 1487 1489 1495 1500 1503 1506 1512 1517 1521 1526 1530 1535 1539 1542 1545 1548 1550 1553 1556 1558 1560 1561 1562 1563 1563 1564 1564 1565 1567 1567 1568 1568 1568
1458 1457 1460 1463 1473 1480 1475 1492 1475 1462 1470 1467 1466 1467 1471 1474 1480 1482 1485 1489 1494 1501 1506 1510 1514 1520 1524 1529 1533 1536 1540 1544 1547 1550 1552 1554 1556 1558 1559 1560 1560 1560 1562 1563 1565 1566 1566 1567 1568
1446 1455 1458 1460 1469 1494 1472 1474 1477 1462 1453 1452 1454 1457 1460 1467 1471 1475 1476 1482 1487 1493 1499 1504 1508 1513 1517 1522 1527 1530 1534 1538 1542 1544 1547 1550 1552 1554 1555 1556 1557 1558 1559 1561 1563 1564 1564 1565 1566
1445 1465 1491 1492 1487 1484 1461 1473 1453 1436 1433 1434 1439 1444 1450 1455 1461 1467 1471 1477 1480 1483 1489 1496 1502 1506 1511 1515 1520 1524 1528 1533 1536 1539 1543 1545 1547 1548 1551 1553 1554 1556 1557 1558 1560 1561 1563 1564 1565
1444 1451 1474 1500 1497 1482 1456 1472 1441 1422 1420 1421 1424 1430 1440 1449 1452 1455 1459 1462 1468 1473 1479 1486 1493 1500 1505 1509 1514 1519 1523 1527 1531 1534 1537 1540 1542 1545 1547 1549 1551 1554 1555 1556 1558 1560 1562 1563 1565
1434 1448 1438 1467 1465 1479 1457 1438 1421 1415 1417 1416 1421 1428 1432 1439 1443 1442 1447 1454 1458 1464 1468 1474 1483 1491 1497 1503 1508 1513 1517 1521 1524 1529 1532 1536 1538 1541 1544 1545 1548 1550 1552 1554 1556 1558 1561 1562 1563
1417 1421 1448 1460 1473 1478 1459 1448 1433 1419 1414 1411 1412 1416 1420 1426 1430 1431 1437 1443 1449 1454 1460 1468 1474 1480 1488 1495 1500 1506 1511 1515 1520 1524 1527 1529 1533 1537 1539 1541 1544 1547 1550 1552 1553 1555 1556 1557 1558
1413 1421 1426 1428 1440 1456 1477 1430 1406 1408 1407 1408 1403 1401 1407 1411 1416 1424 1428 1433 1439 1446 1454 1460 1468 1475 1481 1487 1493 1499 1505 1509 1514 1518 1521 1524 1528 1531 1534 1537 1540 1543 1545 1547 1549 1551 1552 1554 1556
1392 1403 1416 1430 1447 1436 1423 1398 1388 1394 1397 1395 1393 1397 1398 1400 1410 1417 1421 1428 1435 1440 1446 1451 1458 1467 1472 1479 1486 1492 1498 1503 1507 1510 1514 1518 1522 1525 1528 1531 1535 1538 1540 1543 1544 1546 1547 1547 1549